[Date Prev][Date Next][Thread Prev][Thread Next] - [Date Index][Thread Index][Author Index]
2 Line ISS Keps 3-10
- Subject: [sarex] 2 Line ISS Keps 3-10
- From: "Dave Larsen PhD" <doc@xxxxxxxxxxx>
- Date: Thu, 10 Mar 2005 05:03:59 -0800
ISS
1 25544U 98067A 05069.37697015 .00019766 00000-0 16098-3 0 9837
2 25544 51.6466 46.3851 0003850 172.6561 348.7268 15.70649431360143
----
Via the sarex mailing list at AMSAT.ORG courtesy of AMSAT-NA.
To unsubscribe, send "unsubscribe sarex" to Majordomo@amsat.org
AMSAT Home